Content
SEND FEEDBACK

Daily
Averages
Monthly
Summary
United States of America

FORT LEE, NEW JERSEY


Home > North America > United States > New Jersey
Elevation: 128 feet     Latitude: 40 46N     Longitude: 073 58W

WEATHER
 
SELECT A DAY
Number of Records: 151,321;   Date Range: 11/1/95 - 10/24/14
 
SHARE

PRINT THIS DATA

[ ← Previous Day ]
WEATHER ALMANAC - MAY 25, 2013
[ Next Day → ]
[ °C ]   °F
Weather ElementAverageHighLow
Temperature48.7 °F53.1 °F (1:51 pm)45 °F (1:51 am)
Dewpoint41.4 °F44.1 °F (8:51 am)37 °F (8:51 pm)
Humidity77 %93 % (7:35 am)57 % (8:51 pm)
Barometer29.93 in30.00 in (9:51 pm)29.90 in (2:51 am)
Wind Speed9.1 mph15 mph (5:51 pm)
Wind Gust34.5 mph (4:51 pm)
Weather ElementAverage
Visibility8.9 mi
Wind DirectionSSW (193.1 °)

Weather ElementTotal
Precipitation0.21 in
Heating Degree Days16 (Base 65)
Averaged from 35 records on May 25, 2013
WEATHER CONDITIONS BREAKOUT
WIND DIRECTION BREAKOUT
WEATHER BY HOUR - MAY 25, 2013
[ °C ]   °F
Local TimeTemperatureDewpointHumidityBarometerVisibilityWind DirectionWind SpeedGust SpeedPrecipitationEventsConditions
1:51 AM45.0 °F42.1 °F90 %29.91 in10.0 miVariable6.9 mph0.03 inRainLight Rain
2:51 AM45.0 °F42.1 °F90 %29.90 in10.0 miVariable4.6 mph19.6 mph0.00 inOvercast
3:51 AM45.0 °F42.1 °F90 %29.91 in10.0 miNW (310°)9.2 mphOvercast
4:15 AM45.0 °F42.1 °F90 %29.92 in9.0 miVariable5.8 mphOvercast
4:35 AM45.0 °F42.1 °F90 %29.92 in10.0 miNorthOvercast
4:51 AM45.0 °F41.0 °F86 %29.90 in10.0 miVariable5.8 mphOvercast
5:07 AM45.0 °F42.1 °F90 %29.92 in10.0 miNW (310°)8.1 mphOvercast
5:51 AM45.0 °F41.0 °F86 %29.90 in10.0 miVariable5.8 mph0.00 inOvercast
6:51 AM45.0 °F42.1 °F90 %29.91 in6.0 miNW (310°)8.1 mph18.4 mph0.01 inRainLight Rain
7:35 AM45.0 °F43.0 °F93 %29.94 in6.0 miNW (310°)8.1 mph17.3 mph0.03 inRainLight Rain
7:51 AM45.0 °F43.0 °F93 %29.92 in4.0 miVariable4.6 mph0.05 inRainLight Rain
8:51 AM46.9 °F44.1 °F90 %29.92 in10.0 miVariable5.8 mph0.01 inOvercast
9:33 AM48.0 °F44.1 °F86 %29.94 in10.0 miWNW (300°)8.1 mph0.00 inOvercast
9:51 AM48.9 °F43.0 °F80 %29.91 in10.0 miNW (310°)11.5 mph21.9 mph0.00 inOvercast
10:01 AM50.0 °F43.0 °F77 %29.93 in10.0 miNW (310°)8.1 mph23.0 mphOvercast
10:26 AM50.0 °F42.1 °F74 %29.92 in10.0 miNorthOvercast
10:48 AM50.0 °F41.0 °F71 %29.92 in10.0 miWNW (300°)11.5 mph26.5 mphOvercast
10:51 AM50.0 °F42.1 °F74 %29.90 in10.0 miWNW (300°)11.5 mph26.5 mphOvercast
11:38 AM50.0 °F43.0 °F77 %29.93 in6.0 miNW (310°)10.4 mph19.6 mph0.00 inRainLight Rain
11:47 AM50.0 °F42.8 °F76 %29.93 in7.0 miNW (310°)13.8 mph24.2 mph0.01 inRainLight Rain
11:51 AM50.0 °F43.0 °F77 %29.91 in10.0 miNW (310°)12.7 mph24.2 mph0.01 inRainLight Rain
12:51 PM50.0 °F43.0 °F77 %29.92 in10.0 miNW (310°)11.5 mph26.5 mph0.00 inOvercast
1:51 PM53.1 °F42.1 °F66 %29.92 in10.0 miVariable5.8 mph26.5 mphMostly Cloudy
2:51 PM52.0 °F41.0 °F66 %29.92 in7.0 miNW (310°)12.7 mph27.6 mph0.00 inRainLight Rain
3:51 PM53.1 °F39.0 °F59 %29.93 in10.0 miNorth0.00 inOvercast
4:51 PM52.0 °F39.9 °F63 %29.94 in10.0 miNW (320°)10.4 mph34.5 mph0.00 inOvercast
5:13 PM48.9 °F43.0 °F80 %29.97 in1.8 miWNW (300°)9.2 mph27.6 mph0.01 inRainRain
5:22 PM48.9 °F43.0 °F80 %29.97 in3.0 miNW (310°)10.4 mph26.5 mph0.02 inRainLight Rain
5:51 PM50.0 °F42.1 °F74 %29.95 in10.0 miNW (310°)15.0 mph27.6 mph0.03 inMostly Cloudy
6:51 PM51.1 °F39.0 °F63 %29.97 in10.0 miWNW (300°)12.7 mph24.2 mphScattered Clouds
7:51 PM52.0 °F37.9 °F59 %29.99 in10.0 miNW (310°)10.4 mph19.6 mphOvercast
8:51 PM52.0 °F37.0 °F57 %29.99 in10.0 miVariable6.9 mph21.9 mphOvercast
9:51 PM51.1 °F37.0 °F59 %30.00 in10.0 miVariable6.9 mph23.0 mphOvercast
10:51 PM50.0 °F37.0 °F61 %30.00 in10.0 miWNW (290°)10.4 mph24.2 mphMostly Cloudy
11:51 PM50.0 °F37.0 °F61 %29.98 in10.0 miNW (310°)9.2 mph20.7 mphOvercast
Hourly data recorded from KNYC, located miles away from Fort Lee, New Jersey







STORIES FROM OUR PARTNERS